FW3861 Weather Reports


Display with metric or nautical units.
time (UTC)temp
F
wind
direction
speed
MPH
gust
MPH
rain 1hr
in
rain 24hr
in
rain mn
in
humidity
%
barometer
mb
20260506131803 57 183 5.0 10.0 0.00 0.00 0.00 91 1011.5
20260506130903 57 182 5.0 10.0 0.00 0.00 0.00 90 1011.4
20260506130220 56 182 5.0 10.0 0.00 0.00 0.00 91 1011.5
20260506125616 56 185 5.0 10.0 0.00 0.00 0.00 92 1011.3
20260506124718 56 190 5.0 10.0 0.00 0.00 0.00 92 1011.4
20260506123603 56 189 4.0 9.0 0.00 0.00 0.00 92 1011.6
20260506122918 56 186 5.0 10.0 0.00 0.00 0.00 92 1011.5
20260506121803 57 193 5.0 9.0 0.00 0.00 0.00 91 1011.6
20260506120903 56 193 6.0 11.0 0.00 0.00 0.00 92 1011.9
20260506120221 56 186 6.0 11.0 0.00 0.00 0.00 92 1011.8
20260506115404 56 185 6.0 11.0 0.00 0.00 0.00 93 1011.8
20260506114503 56 192 6.0 11.0 0.00 0.00 0.00 93 1011.7
20260506113603 56 188 6.0 13.0 0.00 0.00 0.00 93 1011.7
20260506112703 56 192 5.0 11.0 0.00 0.00 0.00 94 1011.6
20260506111803 55 187 6.0 10.0 0.00 0.00 0.00 94 1011.6
20260506110903 55 194 5.0 10.0 0.00 0.00 0.00 95 1011.6
20260506110003 55 191 6.0 13.0 0.00 0.00 0.00 95 1011.7
20260506105403 54 189 6.0 11.0 0.00 0.00 0.00 95 1011.7
20260506104503 54 185 5.0 10.0 0.00 0.00 0.00 95 1011.9
20260506103603 54 190 5.0 10.0 0.00 0.00 0.00 95 1011.6
20260506102703 54 189 5.0 10.0 0.00 0.00 0.00 95 1011.6
20260506101803 54 190 5.0 10.0 0.00 0.00 0.00 95 1011.4
20260506100903 54 196 6.0 11.0 0.00 0.00 0.00 95 1011.4
20260506100003 54 190 6.0 11.0 0.00 0.00 0.00 95 1011.5
20260506095403 54 188 6.0 11.0 0.00 0.00 0.00 95 1011.3
20260506094503 54 195 6.0 11.0 0.00 0.00 0.00 95 1011.4
20260506093603 54 186 6.0 13.0 0.00 0.00 0.00 95 1011.4
20260506092703 55 190 6.0 11.0 0.00 0.00 0.00 95 1011.4
20260506092017 55 189 5.0 11.0 0.00 0.00 0.00 95 1011.5
20260506090903 55 178 5.0 11.0 0.00 0.00 0.00 94 1011.3
20260506090216 55 182 6.0 11.0 0.00 0.00 0.00 94 1011.5
20260506085403 55 188 5.0 10.0 0.00 0.00 0.00 94 1011.6
20260506084503 55 185 5.0 10.0 0.00 0.00 0.00 94 1011.6
20260506083818 55 186 5.0 10.0 0.00 0.00 0.00 94 1011.9
20260506082920 55 182 6.0 10.0 0.00 0.00 0.00 94 1011.7
20260506082018 55 189 6.0 13.0 0.00 0.00 0.00 93 1011.8
20260506080903 55 186 5.0 10.0 0.00 0.00 0.00 93 1011.8
20260506072703 55 188 5.0 13.0 0.00 0.00 0.00 93 1012.0
20260506072018 55 195 5.0 10.0 0.00 0.00 0.00 93 1012.1
20260506070903 55 191 5.0 11.0 0.00 0.00 0.00 93 1012.0
20260506062019 55 190 6.0 11.0 0.00 0.00 0.00 92 1011.9
20260506060903 55 191 5.0 13.0 0.00 0.00 0.00 92 1012.1
20260506060218 55 193 5.0 10.0 0.00 0.00 0.00 92 1011.9
20260506050903 56 191 7.0 15.0 0.00 0.00 0.00 90 1012.5
20260506044503 56 187 6.0 13.0 0.00 0.00 0.00 90 1012.6
20260506043603 56 192 7.0 13.0 0.00 0.00 0.00 90 1012.5
20260506042703 56 190 7.0 14.0 0.00 0.00 0.00 89 1012.4
20260506041803 56 188 7.0 13.0 0.00 0.00 0.00 89 1012.3
20260506041117 56 186 7.0 13.0 0.00 0.00 0.00 89 1012.4
20260506040220 56 189 8.0 17.0 0.00 0.00 0.00 89 1012.4
20260506035621 56 192 8.0 17.0 0.00 0.00 0.00 89 1012.4
20260506034503 57 188 8.0 14.0 0.00 0.00 0.00 88 1012.3
20260506033821 57 187 8.0 15.0 0.00 0.00 0.00 88 1012.2
20260506032703 57 190 8.0 17.0 0.00 0.00 0.00 88 1012.0
20260506031803 57 193 7.0 17.0 0.00 0.00 0.00 88 1012.2
20260506030903 57 198 7.0 14.0 0.00 0.00 0.00 88 1012.0
20260506030003 57 190 7.0 14.0 0.00 0.00 0.00 88 1012.2
20260506025403 57 185 8.0 14.0 0.00 0.00 0.00 87 1012.4
20260506024503 57 191 7.0 13.0 0.00 0.00 0.00 88 1012.1
20260506023816 57 192 8.0 16.0 0.00 0.00 0.00 88 1012.2
20260506022703 57 191 8.0 16.0 0.00 0.00 0.00 88 1012.0
20260506022016 58 194 7.0 16.0 0.00 0.00 0.00 87 1012.1
20260506021119 58 189 7.0 15.0 0.00 0.00 0.00 87 1012.0
20260506020003 57 196 7.0 15.0 0.00 0.00 0.00 87 1012.2
20260506015617 57 191 6.0 15.0 0.00 0.00 0.00 86 1012.3
20260506014504 58 192 7.0 14.0 0.00 0.00 0.00 86 1012.2
20260506013603 58 188 6.0 14.0 0.00 0.00 0.00 86 1012.2
20260506012703 58 192 6.0 11.0 0.00 0.00 0.00 85 1012.0
20260506011803 58 190 6.0 11.0 0.00 0.00 0.00 85 1011.9
20260506010903 58 189 6.0 11.0 0.00 0.00 0.00 85 1012.0
20260506010217 58 185 6.0 13.0 0.00 0.00 0.00 84 1011.9
20260506005403 58 191 7.0 14.0 0.00 0.00 0.00 84 1011.6
20260506004503 58 193 7.0 15.0 0.00 0.00 0.00 84 1012.0
20260506003603 58 188 7.0 16.0 0.00 0.00 0.00 84 1011.7
20260506002920 59 179 7.0 17.0 0.00 0.00 0.00 83 1011.6
20260506002018 60 185 8.0 18.0 0.00 0.00 0.00 82 1011.3
20260506000903 59 200 9.0 18.0 0.00 0.00 0.00 82 1011.2
20260506000003 59 189 9.0 18.0 0.00 0.00 0.00 82 1011.3
20260505235403 59 193 9.0 17.0 0.00 0.00 0.00 82 1010.9
20260505234721 60 194 9.0 17.0 0.00 0.00 0.00 81 1010.9
20260505233603 60 183 9.0 17.0 0.00 0.00 0.00 80 1010.5
20260505232703 60 190 9.0 17.0 0.00 0.00 0.00 80 1010.4
20260505231803 61 193 8.0 17.0 0.00 0.00 0.00 79 1010.1
20260505230903 60 188 8.0 17.0 0.00 0.00 0.00 80 1010.1
20260505230003 60 191 8.0 16.0 0.00 0.00 0.00 80 1010.0
20260505225403 60 193 9.0 16.0 0.00 0.00 0.00 80 1010.2
20260505224503 60 188 8.0 19.0 0.00 0.00 0.00 80 1009.9
20260505223603 61 178 8.0 15.0 0.00 0.00 0.00 79 1010.0
20260505222703 61 186 7.0 13.0 0.00 0.00 0.00 79 1009.6
20260505221803 61 181 7.0 13.0 0.00 0.00 0.00 79 1010.0
20260505220903 61 181 7.0 13.0 0.00 0.00 0.00 79 1009.8
20260505220004 61 186 7.0 17.0 0.00 0.00 0.00 79 1010.0
20260505215403 61 185 7.0 15.0 0.00 0.00 0.00 79 1009.7
20260505214503 62 187 7.0 15.0 0.00 0.00 0.00 78 1010.0
20260505213820 62 181 7.0 16.0 0.00 0.00 0.00 78 1009.9
20260505212703 62 184 7.0 15.0 0.00 0.00 0.00 78 1009.7
20260505211803 62 177 7.0 15.0 0.00 0.00 0.00 78 1009.4
20260505210903 62 185 7.0 16.0 0.00 0.00 0.00 78 1009.4
20260505210003 62 192 7.0 14.0 0.00 0.00 0.00 79 1009.6
20260505205621 61 192 7.0 14.0 0.00 0.00 0.00 79 1009.8
20260505204718 60 188 7.0 14.0 0.00 0.00 0.00 81 1009.6
20260505203603 60 183 7.0 14.0 0.00 0.00 0.00 80 1009.4
20260505202703 61 178 7.0 13.0 0.00 0.00 0.00 79 1009.6
20260505201803 62 181 6.0 11.0 0.00 0.00 0.00 79 1009.7
20260505200903 61 184 6.0 13.0 0.00 0.00 0.00 79 1009.6
20260505200003 62 178 6.0 14.0 0.00 0.00 0.00 78 1010.0
20260505195403 62 176 6.0 14.0 0.00 0.00 0.00 79 1009.7
20260505194503 62 187 6.0 14.0 0.00 0.00 0.00 78 1009.9
20260505193603 62 182 6.0 11.0 0.00 0.00 0.00 78 1010.2
20260505192918 62 184 5.0 11.0 0.00 0.00 0.00 78 1010.3
20260505192021 62 188 5.0 10.0 0.00 0.00 0.00 79 1010.7
20260505191118 62 190 6.0 11.0 0.00 0.00 0.00 78 1010.8
20260505190004 62 193 6.0 10.0 0.00 0.00 0.00 79 1010.7
20260505185617 62 193 6.0 10.0 0.00 0.00 0.00 79 1011.0
20260505184503 62 180 5.0 10.0 0.00 0.00 0.00 79 1011.1
20260505183603 62 175 5.0 10.0 0.00 0.00 0.00 80 1011.4
20260505182703 62 183 5.0 10.0 0.00 0.00 0.00 79 1011.3
20260505181803 62 178 5.0 10.0 0.00 0.00 0.00 79 1011.2
20260505180903 61 187 5.0 10.0 0.00 0.00 0.00 80 1011.5
20260505180221 62 189 4.0 10.0 0.00 0.00 0.00 80 1011.7
20260505175403 62 179 4.0 9.0 0.00 0.00 0.00 79 1011.8
20260505174503 61 187 4.0 9.0 0.00 0.00 0.00 81 1011.9
20260505173603 61 193 4.0 8.0 0.00 0.00 0.00 80 1012.0
20260505172703 62 187 3.0 6.0 0.00 0.00 0.00 80 1012.2
20260505171803 61 182 3.0 7.0 0.00 0.00 0.00 81 1012.3
20260505170903 61 183 3.0 6.0 0.00 0.00 0.00 81 1012.2
20260505170003 61 191 4.0 8.0 0.00 0.00 0.00 82 1012.2
20260505165403 60 186 3.0 8.0 0.00 0.00 0.00 82 1012.4
20260505164503 60 183 3.0 8.0 0.00 0.00 0.00 82 1012.4
20260505163603 60 191 4.0 7.0 0.00 0.00 0.00 81 1012.5
20260505162703 61 186 3.0 7.0 0.00 0.00 0.00 80 1012.5
20260505161803 61 197 4.0 7.0 0.00 0.00 0.00 80 1012.7
20260505160903 61 189 4.0 7.0 0.00 0.00 0.00 80 1012.9
20260505152703 61 187 3.0 6.0 0.00 0.00 0.00 80 1013.0
20260505151803 62 186 2.0 4.0 0.00 0.00 0.00 79 1013.1
20260505151120 61 190 3.0 4.0 0.00 0.00 0.00 81 1013.1